Time,TemperatureF,DewpointF,PressureIn,WindDirection,WindDirectionDegrees,WindSpeedMPH,WindSpeedGustMPH,Humidity,HourlyPrecipIn,Conditions,Clouds,dailyrainin,SoftwareType,DateUTC
2013-03-03 00:01:00,29.0,29.0,29.92,WNW,303,7.0,-999.0,99,-99.99,,,-99.99,,2013-03-03 07:01:00,
2013-03-03 00:11:00,29.0,29.0,29.92,WNW,303,7.0,-999.0,99,-99.99,,,-99.99,,2013-03-03 07:11:00,
2013-03-03 00:21:00,29.0,29.0,29.90,NW,305,7.0,-999.0,99,-99.99,,,-99.99,,2013-03-03 07:21:00,
2013-03-03 00:31:00,29.0,29.0,29.89,NNW,330,8.0,-999.0,99,-99.99,,,-99.99,,2013-03-03 07:31:00,
2013-03-03 00:42:00,29.0,29.0,29.89,NNW,330,8.0,-999.0,99,-99.99,,,-99.99,,2013-03-03 07:42:00,
2013-03-03 00:52:00,29.0,29.0,29.90,WNW,303,8.0,-999.0,99,-99.99,,,-99.99,,2013-03-03 07:52:00,
2013-03-03 01:01:00,29.0,29.0,29.90,NNW,329,6.0,-999.0,98,-99.99,,,-99.99,,2013-03-03 08:01:00,
2013-03-03 01:11:00,29.0,29.0,29.90,NNW,329,6.0,-999.0,98,-99.99,,,-99.99,,2013-03-03 08:11:00,
2013-03-03 01:21:00,29.0,29.0,29.88,NW,310,6.0,-999.0,99,-99.99,,,-99.99,,2013-03-03 08:21:00,
2013-03-03 01:31:00,29.0,29.0,29.88,NW,310,6.0,-999.0,99,-99.99,,,-99.99,,2013-03-03 08:31:00,
2013-03-03 01:41:00,29.0,29.0,29.88,NW,310,6.0,-999.0,99,-99.99,,,-99.99,,2013-03-03 08:41:00,
2013-03-03 01:53:00,29.0,29.0,29.85,NW,318,7.0,-999.0,98,-99.99,,,-99.99,,2013-03-03 08:53:00,
2013-03-03 02:01:00,28.0,28.0,29.84,WNW,297,7.0,-999.0,98,-99.99,,,-99.99,,2013-03-03 09:01:00,
2013-03-03 02:11:00,28.0,28.0,29.84,WNW,297,7.0,-999.0,98,-99.99,,,-99.99,,2013-03-03 09:11:00,
2013-03-03 02:21:00,28.0,28.0,29.83,NNW,335,8.0,-999.0,98,-99.99,,,-99.99,,2013-03-03 09:21:00,
2013-03-03 02:31:00,28.0,28.0,29.83,NW,320,9.0,-999.0,98,-99.99,,,-99.99,,2013-03-03 09:31:00,
2013-03-03 02:41:00,28.0,28.0,29.83,NW,320,9.0,-999.0,98,-99.99,,,-99.99,,2013-03-03 09:41:00,
2013-03-03 02:52:00,28.0,28.0,29.82,NW,305,8.0,-999.0,98,-99.99,,,-99.99,,2013-03-03 09:52:00,
2013-03-03 03:01:00,28.0,28.0,29.81,NW,325,7.0,-999.0,98,-99.99,,,-99.99,,2013-03-03 10:01:00,
2013-03-03 03:11:00,28.0,28.0,29.81,NW,325,7.0,-999.0,98,-99.99,,,-99.99,,2013-03-03 10:11:00,
2013-03-03 03:21:00,28.0,28.0,29.81,NW,308,7.0,-999.0,98,-99.99,,,-99.99,,2013-03-03 10:21:00,
2013-03-03 03:31:00,28.0,28.0,29.79,NNW,330,7.0,-999.0,98,-99.99,,,-99.99,,2013-03-03 10:31:00,
2013-03-03 03:41:00,28.0,28.0,29.79,NNW,330,7.0,-999.0,98,-99.99,,,-99.99,,2013-03-03 10:41:00,
2013-03-03 03:51:00,28.0,28.0,29.78,NW,321,6.0,-999.0,98,-99.99,,,-99.99,,2013-03-03 10:51:00,
2013-03-03 04:01:00,28.0,28.0,29.77,NNW,332,7.0,-999.0,98,-99.99,,,-99.99,,2013-03-03 11:01:00,
2013-03-03 04:11:00,28.0,28.0,29.77,NNW,332,7.0,-999.0,98,-99.99,,,-99.99,,2013-03-03 11:11:00,
2013-03-03 04:21:00,28.0,28.0,29.75,NW,318,7.0,-999.0,98,-99.99,,,-99.99,,2013-03-03 11:21:00,
2013-03-03 04:31:00,28.0,28.0,29.74,NW,321,7.0,-999.0,98,-99.99,,,-99.99,,2013-03-03 11:31:00,
2013-03-03 04:41:00,28.0,28.0,29.74,NW,321,7.0,-999.0,98,-99.99,,,-99.99,,2013-03-03 11:41:00,
2013-03-03 04:52:00,28.0,28.0,29.74,NW,314,0.0,-999.0,98,-99.99,,,-99.99,,2013-03-03 11:52:00,
2013-03-03 05:01:00,27.0,27.0,29.74,NW,315,0.0,-999.0,98,-99.99,,,-99.99,,2013-03-03 12:01:00,
2013-03-03 05:11:00,27.0,27.0,29.74,NW,315,0.0,-999.0,98,-99.99,,,-99.99,,2013-03-03 12:11:00,
2013-03-03 05:21:00,27.0,26.0,29.76,ENE,68,0.0,-999.0,97,-99.99,,,-99.99,,2013-03-03 12:21:00,
2013-03-03 05:31:00,26.0,25.0,29.75,NW,307,0.0,-999.0,97,-99.99,,,-99.99,,2013-03-03 12:31:00,
2013-03-03 05:42:00,26.0,25.0,29.75,NW,307,0.0,-999.0,97,-99.99,,,-99.99,,2013-03-03 12:42:00,
2013-03-03 05:52:00,25.0,24.0,29.73,NNW,329,0.0,-999.0,96,-99.99,,,-99.99,,2013-03-03 12:52:00,
2013-03-03 06:01:00,23.0,22.0,29.75,West,272,0.0,-999.0,95,-99.99,,,-99.99,,2013-03-03 13:01:00,
2013-03-03 06:11:00,23.0,22.0,29.75,West,272,0.0,-999.0,95,-99.99,,,-99.99,,2013-03-03 13:11:00,
2013-03-03 06:21:00,22.0,21.0,29.75,NNW,329,0.0,-999.0,95,-99.99,,,-99.99,,2013-03-03 13:21:00,
2013-03-03 06:32:00,21.0,20.0,29.76,NNE,21,0.0,-999.0,95,-99.99,,,-99.99,,2013-03-03 13:32:00,
2013-03-03 06:41:00,21.0,20.0,29.76,NNE,21,0.0,-999.0,95,-99.99,,,-99.99,,2013-03-03 13:41:00,
2013-03-03 06:51:00,20.0,19.0,29.76,NNE,18,0.0,-999.0,95,-99.99,,,-99.99,,2013-03-03 13:51:00,
2013-03-03 07:01:00,19.0,18.0,29.76,NW,319,0.0,-999.0,95,-99.99,,,-99.99,,2013-03-03 14:01:00,
2013-03-03 07:11:00,19.0,18.0,29.76,NW,319,0.0,-999.0,95,-99.99,,,-99.99,,2013-03-03 14:11:00,
2013-03-03 07:21:00,19.0,18.0,29.77,NNW,340,0.0,-999.0,95,-99.99,,,-99.99,,2013-03-03 14:21:00,
2013-03-03 07:31:00,19.0,18.0,29.78,NNW,338,0.0,-999.0,95,-99.99,,,-99.99,,2013-03-03 14:31:00,
2013-03-03 07:42:00,19.0,18.0,29.78,NNW,338,0.0,-999.0,95,-99.99,,,-99.99,,2013-03-03 14:42:00,
2013-03-03 07:52:00,19.0,18.0,29.77,NW,309,0.0,-999.0,95,-99.99,,,-99.99,,2013-03-03 14:52:00,
2013-03-03 08:01:00,19.0,18.0,29.78,WNW,290,0.0,-999.0,95,-99.99,,,-99.99,,2013-03-03 15:01:00,
2013-03-03 08:11:00,19.0,18.0,29.78,WNW,290,0.0,-999.0,95,-99.99,,,-99.99,,2013-03-03 15:11:00,
2013-03-03 08:22:00,19.0,18.0,29.77,NNW,337,0.0,-999.0,95,-99.99,,,-99.99,,2013-03-03 15:22:00,
2013-03-03 08:31:00,19.0,18.0,29.77,NNW,330,0.0,-999.0,95,-99.99,,,-99.99,,2013-03-03 15:31:00,
2013-03-03 08:42:00,19.0,18.0,29.77,NNW,330,0.0,-999.0,95,-99.99,,,-99.99,,2013-03-03 15:42:00,
2013-03-03 08:52:00,19.0,18.0,29.77,WNW,297,0.0,-999.0,96,-99.99,,,-99.99,,2013-03-03 15:52:00,
2013-03-03 09:01:00,19.0,18.0,29.77,WNW,297,0.0,-999.0,96,-99.99,,,-99.99,,2013-03-03 16:01:00,
2013-03-03 09:11:00,19.0,18.0,29.77,WNW,297,0.0,-999.0,96,-99.99,,,-99.99,,2013-03-03 16:11:00,
2013-03-03 09:21:00,19.0,18.0,29.76,NW,308,0.0,-999.0,95,-99.99,,,-99.99,,2013-03-03 16:21:00,
2013-03-03 09:31:00,19.0,18.0,29.77,NW,308,0.0,-999.0,95,-99.99,,,-99.99,,2013-03-03 16:31:00,
2013-03-03 09:41:00,19.0,18.0,29.77,NW,308,0.0,-999.0,95,-99.99,,,-99.99,,2013-03-03 16:41:00,
2013-03-03 09:52:00,19.0,18.0,29.76,NW,310,0.0,-999.0,95,-99.99,,,-99.99,,2013-03-03 16:52:00,
2013-03-03 10:01:00,19.0,18.0,29.77,NW,308,0.0,-999.0,95,-99.99,,,-99.99,,2013-03-03 17:01:00,
2013-03-03 10:11:00,19.0,18.0,29.76,WSW,252,1.0,-999.0,95,-99.99,,,-99.99,,2013-03-03 17:11:00,
2013-03-03 10:22:00,19.0,18.0,29.76,WSW,252,1.0,-999.0,95,-99.99,,,-99.99,,2013-03-03 17:22:00,
2013-03-03 10:32:00,19.0,18.0,29.76,North,354,5.0,-999.0,95,-99.99,,,-99.99,,2013-03-03 17:32:00,
2013-03-03 10:41:00,19.0,18.0,29.76,North,354,5.0,-999.0,95,-99.99,,,-99.99,,2013-03-03 17:41:00,
2013-03-03 10:52:00,19.0,18.0,29.76,WNW,285,5.0,-999.0,95,-99.99,,,-99.99,,2013-03-03 17:52:00,
2013-03-03 11:01:00,18.0,17.0,29.77,NW,304,5.0,-999.0,95,-99.99,,,-99.99,,2013-03-03 18:01:00,
2013-03-03 11:11:00,18.0,17.0,29.77,NW,304,5.0,-999.0,95,-99.99,,,-99.99,,2013-03-03 18:11:00,
2013-03-03 11:21:00,18.0,17.0,29.77,WNW,298,5.0,-999.0,95,-99.99,,,-99.99,,2013-03-03 18:21:00,
2013-03-03 11:31:00,18.0,17.0,29.78,WNW,297,5.0,-999.0,95,-99.99,,,-99.99,,2013-03-03 18:31:00,
2013-03-03 11:41:00,18.0,17.0,29.78,WNW,297,5.0,-999.0,95,-99.99,,,-99.99,,2013-03-03 18:41:00,
2013-03-03 11:52:00,18.0,17.0,29.78,WNW,291,4.0,-999.0,95,-99.99,,,-99.99,,2013-03-03 18:52:00,
2013-03-03 12:01:00,18.0,17.0,29.78,NW,312,3.0,-999.0,95,-99.99,,,-99.99,,2013-03-03 19:01:00,
2013-03-03 12:11:00,18.0,17.0,29.78,NW,312,3.0,-999.0,95,-99.99,,,-99.99,,2013-03-03 19:11:00,
2013-03-03 12:21:00,18.0,17.0,29.80,WNW,288,3.0,-999.0,95,-99.99,,,-99.99,,2013-03-03 19:21:00,
2013-03-03 12:31:00,19.0,18.0,29.81,WNW,296,1.0,-999.0,95,-99.99,,,-99.99,,2013-03-03 19:31:00,
2013-03-03 12:42:00,19.0,18.0,29.81,WNW,296,1.0,-999.0,95,-99.99,,,-99.99,,2013-03-03 19:42:00,
2013-03-03 12:52:00,19.0,18.0,29.82,NW,322,0.0,-999.0,95,-99.99,,,-99.99,,2013-03-03 19:52:00,
2013-03-03 13:01:00,19.0,18.0,29.82,NW,312,1.0,-999.0,95,-99.99,,,-99.99,,2013-03-03 20:01:00,
2013-03-03 13:11:00,19.0,18.0,29.82,NW,312,1.0,-999.0,95,-99.99,,,-99.99,,2013-03-03 20:11:00,
2013-03-03 13:21:00,19.0,18.0,29.83,NNW,341,1.0,-999.0,95,-99.99,,,-99.99,,2013-03-03 20:21:00,
2013-03-03 13:32:00,19.0,18.0,29.83,NW,308,1.0,-999.0,96,-99.99,,,-99.99,,2013-03-03 20:32:00,
2013-03-03 13:42:00,19.0,18.0,29.83,NW,308,1.0,-999.0,96,-99.99,,,-99.99,,2013-03-03 20:42:00,
2013-03-03 13:52:00,19.0,18.0,29.84,NNW,331,1.0,-999.0,95,-99.99,,,-99.99,,2013-03-03 20:52:00,
2013-03-03 14:01:00,20.0,19.0,29.84,NW,312,0.0,-999.0,95,-99.99,,,-99.99,,2013-03-03 21:01:00,
2013-03-03 14:11:00,20.0,19.0,29.84,NW,312,0.0,-999.0,95,-99.99,,,-99.99,,2013-03-03 21:11:00,
2013-03-03 14:21:00,20.0,19.0,29.84,NW,319,1.0,-999.0,96,-99.99,,,-99.99,,2013-03-03 21:21:00,
2013-03-03 14:31:00,20.0,19.0,29.84,East,93,1.0,-999.0,96,-99.99,,,-99.99,,2013-03-03 21:31:00,
2013-03-03 14:41:00,20.0,19.0,29.84,East,93,1.0,-999.0,96,-99.99,,,-99.99,,2013-03-03 21:41:00,
2013-03-03 14:52:00,20.0,19.0,29.85,NW,308,2.0,-999.0,96,-99.99,,,-99.99,,2013-03-03 21:52:00,
2013-03-03 15:01:00,20.0,19.0,29.87,WNW,290,2.0,-999.0,95,-99.99,,,-99.99,,2013-03-03 22:01:00,
2013-03-03 15:11:00,20.0,19.0,29.87,WNW,290,2.0,-999.0,95,-99.99,,,-99.99,,2013-03-03 22:11:00,
2013-03-03 15:21:00,20.0,19.0,29.88,NNE,16,1.0,-999.0,95,-99.99,,,-99.99,,2013-03-03 22:21:00,
2013-03-03 15:31:00,20.0,19.0,29.90,NW,320,0.0,-999.0,96,-99.99,,,-99.99,,2013-03-03 22:31:00,
2013-03-03 15:42:00,20.0,19.0,29.90,NW,320,0.0,-999.0,96,-99.99,,,-99.99,,2013-03-03 22:42:00,
2013-03-03 15:52:00,20.0,19.0,29.91,North,4,1.0,-999.0,96,-99.99,,,-99.99,,2013-03-03 22:52:00,
2013-03-03 16:01:00,19.0,18.0,29.94,East,87,0.0,-999.0,94,-99.99,,,-99.99,,2013-03-03 23:01:00,
2013-03-03 16:11:00,19.0,18.0,29.94,East,87,0.0,-999.0,94,-99.99,,,-99.99,,2013-03-03 23:11:00,
2013-03-03 16:21:00,19.0,18.0,29.95,ENE,72,0.0,-999.0,95,-99.99,,,-99.99,,2013-03-03 23:21:00,
2013-03-03 16:31:00,19.0,18.0,29.96,NNE,19,0.0,-999.0,95,-99.99,,,-99.99,,2013-03-03 23:31:00,
2013-03-03 16:41:00,19.0,18.0,29.96,NNE,19,0.0,-999.0,95,-99.99,,,-99.99,,2013-03-03 23:41:00,
2013-03-03 16:52:00,19.0,18.0,29.97,North,9,0.0,-999.0,95,-99.99,,,-99.99,,2013-03-03 23:52:00,
2013-03-03 17:01:00,19.0,18.0,29.98,NNW,346,0.0,-999.0,95,-99.99,,,-99.99,,2013-03-04 00:01:00,
2013-03-03 17:11:00,19.0,18.0,29.98,NNW,346,0.0,-999.0,95,-99.99,,,-99.99,,2013-03-04 00:11:00,
2013-03-03 17:21:00,19.0,18.0,30.00,NNW,332,0.0,-999.0,95,-99.99,,,-99.99,,2013-03-04 00:21:00,
2013-03-03 17:32:00,19.0,18.0,30.01,WNW,293,0.0,-999.0,95,-99.99,,,-99.99,,2013-03-04 00:32:00,
2013-03-03 17:41:00,19.0,18.0,30.01,WNW,293,0.0,-999.0,95,-99.99,,,-99.99,,2013-03-04 00:41:00,
2013-03-03 17:52:00,18.0,17.0,30.02,NNW,328,0.0,-999.0,95,-99.99,,,-99.99,,2013-03-04 00:52:00,
2013-03-03 18:01:00,18.0,17.0,30.02,South,177,0.0,-999.0,94,-99.99,,,-99.99,,2013-03-04 01:01:00,
2013-03-03 18:11:00,18.0,17.0,30.02,South,177,0.0,-999.0,94,-99.99,,,-99.99,,2013-03-04 01:11:00,
2013-03-03 18:21:00,17.0,16.0,30.03,SE,145,0.0,-999.0,94,-99.99,,,-99.99,,2013-03-04 01:21:00,
2013-03-03 18:31:00,17.0,16.0,30.03,SSE,154,0.0,-999.0,94,-99.99,,,-99.99,,2013-03-04 01:31:00,
2013-03-03 18:42:00,17.0,16.0,30.03,SSE,154,0.0,-999.0,94,-99.99,,,-99.99,,2013-03-04 01:42:00,
2013-03-03 18:52:00,16.0,15.0,30.06,SE,124,0.0,-999.0,94,-99.99,,,-99.99,,2013-03-04 01:52:00,
2013-03-03 19:01:00,16.0,15.0,30.08,SSE,160,0.0,-999.0,94,-99.99,,,-99.99,,2013-03-04 02:01:00,
2013-03-03 19:11:00,16.0,15.0,30.08,SSE,160,0.0,-999.0,94,-99.99,,,-99.99,,2013-03-04 02:11:00,
2013-03-03 19:22:00,16.0,15.0,30.09,SE,133,0.0,-999.0,94,-99.99,,,-99.99,,2013-03-04 02:22:00,
2013-03-03 19:31:00,15.0,14.0,30.11,SE,127,0.0,-999.0,94,-99.99,,,-99.99,,2013-03-04 02:31:00,
2013-03-03 19:41:00,15.0,14.0,30.11,SE,127,0.0,-999.0,94,-99.99,,,-99.99,,2013-03-04 02:41:00,
2013-03-03 19:52:00,15.0,14.0,30.13,SE,134,0.0,-999.0,94,-99.99,,,-99.99,,2013-03-04 02:52:00,
2013-03-03 20:01:00,15.0,13.0,30.14,East,101,0.0,-999.0,93,-99.99,,,-99.99,,2013-03-04 03:01:00,
2013-03-03 20:11:00,15.0,13.0,30.14,East,101,0.0,-999.0,93,-99.99,,,-99.99,,2013-03-04 03:11:00,
2013-03-03 20:21:00,15.0,14.0,30.14,East,100,0.0,-999.0,94,-99.99,,,-99.99,,2013-03-04 03:21:00,
2013-03-03 20:31:00,14.0,13.0,30.15,ESE,122,0.0,-999.0,94,-99.99,,,-99.99,,2013-03-04 03:31:00,
2013-03-03 20:41:00,14.0,13.0,30.16,SE,143,0.0,-999.0,94,-99.99,,,-99.99,,2013-03-04 03:41:00,
2013-03-03 20:52:00,14.0,13.0,30.16,SE,143,0.0,-999.0,94,-99.99,,,-99.99,,2013-03-04 03:52:00,
2013-03-03 21:01:00,14.0,12.0,30.17,SE,124,0.0,-999.0,93,-99.99,,,-99.99,,2013-03-04 04:01:00,
2013-03-03 21:11:00,14.0,12.0,30.17,SE,124,0.0,-999.0,93,-99.99,,,-99.99,,2013-03-04 04:11:00,
2013-03-03 21:22:00,14.0,12.0,30.18,ESE,115,0.0,-999.0,93,-99.99,,,-99.99,,2013-03-04 04:22:00,
2013-03-03 21:31:00,14.0,12.0,30.19,SE,127,0.0,-999.0,93,-99.99,,,-99.99,,2013-03-04 04:31:00,
2013-03-03 21:41:00,14.0,12.0,30.19,SE,127,0.0,-999.0,93,-99.99,,,-99.99,,2013-03-04 04:41:00,
2013-03-03 21:51:00,14.0,12.0,30.20,SE,125,0.0,-999.0,93,-99.99,,,-99.99,,2013-03-04 04:51:00,
2013-03-03 22:01:00,14.0,12.0,30.20,ESE,112,0.0,-999.0,93,-99.99,,,-99.99,,2013-03-04 05:01:00,
2013-03-03 22:11:00,14.0,12.0,30.20,ESE,112,0.0,-999.0,93,-99.99,,,-99.99,,2013-03-04 05:11:00,
2013-03-03 22:22:00,13.0,11.0,30.21,ESE,111,0.0,-999.0,93,-99.99,,,-99.99,,2013-03-04 05:22:00,
2013-03-03 22:31:00,13.0,11.0,30.22,ESE,106,0.0,-999.0,93,-99.99,,,-99.99,,2013-03-04 05:31:00,
2013-03-03 22:42:00,13.0,11.0,30.22,ESE,106,0.0,-999.0,93,-99.99,,,-99.99,,2013-03-04 05:42:00,
2013-03-03 22:52:00,13.0,11.0,30.22,ESE,106,0.0,-999.0,93,-99.99,,,-99.99,,2013-03-04 05:52:00,
2013-03-03 23:01:00,13.0,11.0,30.24,ESE,110,0.0,-999.0,93,-99.99,,,-99.99,,2013-03-04 06:01:00,
2013-03-03 23:11:00,13.0,11.0,30.24,ESE,110,0.0,-999.0,93,-99.99,,,-99.99,,2013-03-04 06:11:00,
2013-03-03 23:21:00,13.0,11.0,30.24,ESE,114,0.0,-999.0,93,-99.99,,,-99.99,,2013-03-04 06:21:00,
2013-03-03 23:31:00,13.0,11.0,30.25,ESE,114,0.0,-999.0,93,-99.99,,,-99.99,,2013-03-04 06:31:00,
2013-03-03 23:42:00,13.0,11.0,30.25,ESE,114,0.0,-999.0,93,-99.99,,,-99.99,,2013-03-04 06:42:00,
2013-03-03 23:52:00,13.0,11.0,30.25,ESE,115,0.0,-999.0,93,-99.99,,,-99.99,,2013-03-04 06:52:00,